Flag for Angola Weather past 2 weeks in Lubango, Angola

Now
75 °F

Mild.


Feels Like: 78 °F
Forecast: 54 / 77 °F
Wind: 6 mph from Northeast

Location: Ondangwa

Current Time: Apr 21, 2015 at 4:17:25 AM

Latest Report: Apr 21, 2015 at 3:00 AM


Visibility: N/A

Pressure: 30.04 "Hg

Humidity: 54%

Dew point: 57 °F

Location of LubangoLocation

Historic Weather in Lubango — Graph

°F

Lubango temperature yesterday

Maximum temperature yesterday: 93 °F (at 3:00 PM)
Minimum temperature yesterday: 61 °F (at 6:00 AM)
Average temperature yesterday: 76 °F

Past Weeks' High & Low Weather Summary

 TemperatureHumidityPressure
High93 °F (Apr 19, 2:00 PM)94% (Apr 10, 11:00 PM)30.15 "Hg (Apr 10, 11:00 PM)
Low54 °F (Apr 17, 7:00 PM)18% (Apr 17, 2:00 PM)29.92 "Hg (Apr 15, 4:00 PM)
Average77 °F47%30.03 "Hg
* Reported Apr 6 7:00 AM — Apr 21 3:00 AM, Lubango, Weather by CustomWeather, © 2015

Note: Actual official high and low records may vary slightly from our data, if they occured in-between our weather recording intervals... More about our weather records

Advertising

Lubango weather history for previous 24 hours

 ConditionsComfort  
Time TempWeatherWind HumidityBarometerVisibility
3:00 AM
Tue, Apr 21
75 °FMild.6 mph54%30.04 "HgN/A
2:00 AM75 °FMild.6 mph50%30.04 "HgN/A
1:00 AM75 °FMild.8 mph54%30.04 "HgN/A
12:00 AM75 °FMild.6 mph54%30.04 "HgN/A
11:00 PM
Mon, Apr 20
75 °FMild.3 mph41%30.04 "HgN/A
10:00 PM75 °FMild.3 mph39%30.04 "HgN/A
9:00 PM73 °FMild.3 mph44%30.04 "HgN/A
8:00 PM79 °FPleasantly warm.3 mph32%30.01 "HgN/A
7:00 PM82 °FPleasantly warm.6 mph28%29.98 "HgN/A
6:00 PM84 °FPleasantly warm.3 mph31%29.98 "HgN/A
5:00 PM64 °FMild.3 mph60%29.95 "HgN/A
4:00 PM91 °FHot.2 mph21%29.98 "HgN/A
3:00 PM93 °FExtremely hot.3 mph21%29.98 "HgN/A
2:00 PM91 °FHot.5 mph26%30.01 "HgN/A
12:00 PM88 °FSunny.9 mph33%30.07 "Hg10 mi
10:00 AM84 °FSunny.9 mph40%30.12 "Hg10 mi
9:00 AM79 °FSunny.3 mph45%30.12 "Hg10 mi
6:00 AM61 °FClear.5 mph45%30.04 "Hg10 mi
5:00 AM63 °FClear.No wind42%30.04 "Hg10 mi
4:00 AM63 °FMild.1 mph49%30.01 "HgN/A
Weather by CustomWeather, © 2015

See weather overviewHow to use our weather pages